Time,TemperatureF,DewpointF,PressureIn,WindDirection,WindDirectionDegrees,WindSpeedMPH,WindSpeedGustMPH,Humidity,HourlyPrecipIn,Conditions,Clouds,dailyrainin,SoftwareType,DateUTC
2013-10-02 00:00:00,67.7,63.0,29.87,NW,309,0.0,0.0,85,0.00,,,0.00,Wunderground v.1.15,2013-10-02 05:00:00,
2013-10-02 00:10:00,67.5,63.2,29.87,NW,309,0.0,0.0,86,0.00,,,0.00,Wunderground v.1.15,2013-10-02 05:10:00,
2013-10-02 00:15:00,67.4,63.1,29.87,NW,309,0.0,0.0,86,0.00,,,0.00,Wunderground v.1.15,2013-10-02 05:15:00,
2013-10-02 00:25:00,66.9,62.9,29.87,NW,309,0.0,0.0,87,0.00,,,0.00,Wunderground v.1.15,2013-10-02 05:25:00,
2013-10-02 00:30:00,66.7,62.7,29.87,WNW,290,0.0,0.0,87,0.00,,,0.00,Wunderground v.1.15,2013-10-02 05:30:00,
2013-10-02 00:40:00,66.4,62.7,29.87,WNW,289,0.0,0.0,88,0.00,,,0.00,Wunderground v.1.15,2013-10-02 05:40:00,
2013-10-02 00:50:00,66.3,62.6,29.87,West,280,0.0,0.0,88,0.00,,,0.00,Wunderground v.1.15,2013-10-02 05:50:00,
2013-10-02 00:55:00,66.2,62.9,29.87,West,280,0.0,0.0,89,0.00,,,0.00,Wunderground v.1.15,2013-10-02 05:55:00,
2013-10-02 01:00:00,66.2,62.9,29.87,West,280,0.0,0.0,89,0.00,,,0.00,Wunderground v.1.15,2013-10-02 06:00:00,
2013-10-02 01:10:00,66.1,62.4,29.87,West,278,0.0,0.0,88,0.00,,,0.00,Wunderground v.1.15,2013-10-02 06:10:00,
2013-10-02 01:15:00,66.0,62.3,29.87,West,278,0.0,0.0,88,0.00,,,0.00,Wunderground v.1.15,2013-10-02 06:15:00,
2013-10-02 01:25:00,65.7,62.4,29.87,West,280,0.0,0.0,89,0.00,,,0.00,Wunderground v.1.15,2013-10-02 06:25:00,
2013-10-02 01:35:00,65.5,62.2,29.87,West,280,0.0,0.0,89,0.00,,,0.00,Wunderground v.1.15,2013-10-02 06:35:00,
2013-10-02 01:45:00,65.3,62.3,29.87,West,280,0.0,0.0,90,0.00,,,0.00,Wunderground v.1.15,2013-10-02 06:45:00,
2013-10-02 01:51:00,65.3,62.0,29.88,West,280,0.0,0.0,89,0.00,,,0.00,Wunderground v.1.15,2013-10-02 06:51:00,
2013-10-02 02:00:00,65.3,62.0,29.88,West,280,0.0,0.0,89,0.00,,,0.00,Wunderground v.1.15,2013-10-02 07:00:00,
2013-10-02 02:10:00,65.4,62.4,29.88,NW,315,0.0,0.0,90,0.00,,,0.00,Wunderground v.1.15,2013-10-02 07:10:00,
2013-10-02 02:20:00,65.6,62.3,29.88,NW,315,0.0,0.0,89,0.00,,,0.00,Wunderground v.1.15,2013-10-02 07:20:00,
2013-10-02 02:25:00,65.5,62.2,29.88,NW,305,0.0,1.0,89,0.00,,,0.00,Wunderground v.1.15,2013-10-02 07:25:00,
2013-10-02 02:35:00,65.6,62.3,29.88,WNW,303,0.0,0.0,89,0.00,,,0.00,Wunderground v.1.15,2013-10-02 07:35:00,
2013-10-02 02:45:00,65.5,62.2,29.88,NW,304,0.0,0.0,89,0.00,,,0.00,Wunderground v.1.15,2013-10-02 07:45:00,
2013-10-02 02:55:00,65.2,61.9,29.88,NW,311,0.0,0.0,89,0.00,,,0.00,Wunderground v.1.15,2013-10-02 07:55:00,
2013-10-02 03:00:00,65.2,62.2,29.88,WNW,297,0.0,0.0,90,0.00,,,0.00,Wunderground v.1.15,2013-10-02 08:00:00,
2013-10-02 03:11:00,65.0,62.0,29.88,WNW,297,0.0,0.0,90,0.00,,,0.00,Wunderground v.1.15,2013-10-02 08:11:00,
2013-10-02 03:20:00,65.0,62.0,29.88,WNW,297,0.0,0.0,90,0.00,,,0.00,Wunderground v.1.15,2013-10-02 08:20:00,
2013-10-02 03:30:00,64.9,62.2,29.88,WNW,297,0.0,0.0,91,0.00,,,0.00,Wunderground v.1.15,2013-10-02 08:30:00,
2013-10-02 03:35:00,64.7,62.0,29.88,WNW,297,0.0,0.0,91,0.00,,,0.00,Wunderground v.1.15,2013-10-02 08:35:00,
2013-10-02 03:45:00,64.4,61.7,29.88,WNW,297,0.0,0.0,91,0.00,,,0.00,Wunderground v.1.15,2013-10-02 08:45:00,
2013-10-02 03:55:00,64.1,61.4,29.88,WNW,297,0.0,0.0,91,0.00,,,0.00,Wunderground v.1.15,2013-10-02 08:55:00,
2013-10-02 04:00:00,64.1,61.7,29.88,WNW,297,0.0,0.0,92,0.00,,,0.00,Wunderground v.1.15,2013-10-02 09:00:00,
2013-10-02 04:10:00,64.0,61.6,29.88,WNW,297,0.0,0.0,92,0.00,,,0.00,Wunderground v.1.15,2013-10-02 09:10:00,
2013-10-02 04:15:00,64.2,62.1,29.88,WNW,297,0.0,0.0,93,0.00,,,0.00,Wunderground v.1.15,2013-10-02 09:15:00,
2013-10-02 04:25:00,64.9,63.1,29.88,NW,311,0.0,0.0,94,0.00,,,0.00,Wunderground v.1.15,2013-10-02 09:25:00,
2013-10-02 04:30:00,65.1,63.0,29.88,NW,312,0.0,0.0,93,0.00,,,0.00,Wunderground v.1.15,2013-10-02 09:30:00,
2013-10-02 04:40:00,65.1,62.7,29.88,NW,311,0.0,0.0,92,0.00,,,0.00,Wunderground v.1.15,2013-10-02 09:40:00,
2013-10-02 04:50:00,64.7,62.6,29.88,NW,312,0.0,0.0,93,0.00,,,0.00,Wunderground v.1.15,2013-10-02 09:50:00,
2013-10-02 05:00:00,64.5,62.4,29.89,NW,312,0.0,0.0,93,0.00,,,0.00,Wunderground v.1.15,2013-10-02 10:00:00,
2013-10-02 05:10:00,64.1,62.0,29.89,NW,311,0.0,0.0,93,0.00,,,0.00,Wunderground v.1.15,2013-10-02 10:10:00,
2013-10-02 05:15:00,64.1,62.3,29.89,NW,312,0.0,0.0,94,0.00,,,0.00,Wunderground v.1.15,2013-10-02 10:15:00,
2013-10-02 05:25:00,63.8,62.0,29.89,NW,311,0.0,0.0,94,0.00,,,0.00,Wunderground v.1.15,2013-10-02 10:25:00,
2013-10-02 05:30:00,63.6,61.8,29.89,NW,312,0.0,0.0,94,0.00,,,0.00,Wunderground v.1.15,2013-10-02 10:30:00,
2013-10-02 05:40:00,63.4,61.6,29.89,NW,312,0.0,0.0,94,0.00,,,0.00,Wunderground v.1.15,2013-10-02 10:40:00,
2013-10-02 05:50:00,63.4,61.6,29.89,NW,311,0.0,0.0,94,0.00,,,0.00,Wunderground v.1.15,2013-10-02 10:50:00,
2013-10-02 05:55:00,63.3,61.8,29.89,NW,311,0.0,0.0,95,0.00,,,0.00,Wunderground v.1.15,2013-10-02 10:55:00,
2013-10-02 06:00:00,63.2,61.7,29.89,NW,311,0.0,0.0,95,0.00,,,0.00,Wunderground v.1.15,2013-10-02 11:00:00,
2013-10-02 06:10:00,63.0,61.5,29.89,NW,311,0.0,0.0,95,0.00,,,0.00,Wunderground v.1.15,2013-10-02 11:10:00,
2013-10-02 06:20:00,62.9,61.4,29.90,NW,312,0.0,0.0,95,0.00,,,0.00,Wunderground v.1.15,2013-10-02 11:20:00,
2013-10-02 06:25:00,62.9,61.4,29.90,NW,311,0.0,0.0,95,0.00,,,0.00,Wunderground v.1.15,2013-10-02 11:25:00,
2013-10-02 06:35:00,63.0,61.5,29.90,NW,311,0.0,0.0,95,0.00,,,0.00,Wunderground v.1.15,2013-10-02 11:35:00,
2013-10-02 06:45:00,62.9,61.4,29.90,NW,311,0.0,0.0,95,0.00,,,0.00,Wunderground v.1.15,2013-10-02 11:45:00,
2013-10-02 06:55:00,63.0,61.5,29.90,NW,311,0.0,0.0,95,0.00,,,0.00,Wunderground v.1.15,2013-10-02 11:55:00,
2013-10-02 07:00:00,63.0,61.5,29.90,NW,311,0.0,0.0,95,0.00,,,0.00,Wunderground v.1.15,2013-10-02 12:00:00,
2013-10-02 07:10:00,63.0,61.5,29.90,NW,311,0.0,0.0,95,0.00,,,0.00,Wunderground v.1.15,2013-10-02 12:10:00,
2013-10-02 07:15:00,62.9,61.4,29.90,NW,311,0.0,0.0,95,0.00,,,0.00,Wunderground v.1.15,2013-10-02 12:15:00,
2013-10-02 07:25:00,62.8,61.3,29.91,NW,311,0.0,0.0,95,0.00,,,0.00,Wunderground v.1.15,2013-10-02 12:25:00,
2013-10-02 07:30:00,62.7,61.5,29.91,NW,311,0.0,0.0,96,0.00,,,0.00,Wunderground v.1.15,2013-10-02 12:30:00,
2013-10-02 07:40:00,62.9,61.7,29.91,NW,311,0.0,0.0,96,0.00,,,0.00,Wunderground v.1.15,2013-10-02 12:40:00,
2013-10-02 07:45:00,63.0,61.8,29.91,NW,311,0.0,0.0,96,0.00,,,0.00,Wunderground v.1.15,2013-10-02 12:45:00,
2013-10-02 07:55:00,63.4,62.2,29.91,NW,311,0.0,1.0,96,0.00,,,0.00,Wunderground v.1.15,2013-10-02 12:55:00,
2013-10-02 08:00:00,63.7,62.5,29.91,NW,311,0.0,0.0,96,0.00,,,0.00,Wunderground v.1.15,2013-10-02 13:00:00,
2013-10-02 08:10:00,64.6,63.4,29.91,NW,309,0.0,1.0,96,0.00,,,0.00,Wunderground v.1.15,2013-10-02 13:10:00,
2013-10-02 08:20:00,65.2,63.7,29.91,WNW,302,0.0,1.0,95,0.00,,,0.00,Wunderground v.1.15,2013-10-02 13:20:00,
2013-10-02 08:30:00,66.1,64.6,29.92,WNW,302,0.0,1.0,95,0.00,,,0.00,Wunderground v.1.15,2013-10-02 13:30:00,
2013-10-02 08:40:00,66.4,64.6,29.92,NW,315,1.0,1.0,94,0.00,,,0.00,Wunderground v.1.15,2013-10-02 13:40:00,
2013-10-02 08:45:00,66.5,64.7,29.92,WNW,295,1.0,1.0,94,0.00,,,0.00,Wunderground v.1.15,2013-10-02 13:45:00,
2013-10-02 08:55:00,66.9,65.1,29.92,NW,307,1.0,2.0,94,0.00,,,0.00,Wunderground v.1.15,2013-10-02 13:55:00,
2013-10-02 09:00:00,67.1,65.3,29.92,NW,307,1.0,1.0,94,0.00,,,0.00,Wunderground v.1.15,2013-10-02 14:00:00,
2013-10-02 09:10:00,68.1,66.6,29.92,NW,311,0.0,2.0,95,0.00,,,0.00,Wunderground v.1.15,2013-10-02 14:10:00,
2013-10-02 09:16:00,68.6,67.1,29.92,WNW,298,1.0,2.0,95,0.00,,,0.00,Wunderground v.1.15,2013-10-02 14:16:00,
2013-10-02 09:25:00,69.3,67.2,29.92,NW,321,1.0,2.0,93,0.00,,,0.00,Wunderground v.1.15,2013-10-02 14:25:00,
2013-10-02 09:35:00,69.8,67.7,29.92,NW,316,1.0,1.0,93,0.00,,,0.00,Wunderground v.1.15,2013-10-02 14:35:00,
2013-10-02 09:45:00,70.4,68.3,29.92,NW,326,1.0,2.0,93,0.00,,,0.00,Wunderground v.1.15,2013-10-02 14:45:00,
2013-10-02 09:55:00,71.0,68.6,29.92,NNE,20,1.0,2.0,92,0.00,,,0.00,Wunderground v.1.15,2013-10-02 14:55:00,
2013-10-02 10:00:00,71.2,68.4,29.92,NNW,327,1.0,2.0,91,0.00,,,0.00,Wunderground v.1.15,2013-10-02 15:00:00,
2013-10-02 10:10:00,71.8,69.0,29.92,North,8,1.0,1.0,91,0.00,,,0.00,Wunderground v.1.15,2013-10-02 15:10:00,
2013-10-02 10:15:00,71.9,68.8,29.92,NNE,32,1.0,1.0,90,0.00,,,0.00,Wunderground v.1.15,2013-10-02 15:15:00,
2013-10-02 10:25:00,72.1,69.0,29.92,NNE,32,0.0,1.0,90,0.00,,,0.00,Wunderground v.1.15,2013-10-02 15:25:00,
2013-10-02 10:35:00,72.6,69.5,29.92,NNW,346,0.0,2.0,90,0.00,,,0.00,Wunderground v.1.15,2013-10-02 15:35:00,
2013-10-02 10:45:00,73.2,69.8,29.92,NNE,18,0.0,1.0,89,0.00,,,0.00,Wunderground v.1.15,2013-10-02 15:45:00,
2013-10-02 10:50:00,73.4,70.0,29.92,NE,36,1.0,2.0,89,0.00,,,0.00,Wunderground v.1.15,2013-10-02 15:50:00,
2013-10-02 11:00:00,73.7,70.3,29.92,NW,311,1.0,1.0,89,0.00,,,0.00,Wunderground v.1.15,2013-10-02 16:00:00,
2013-10-02 11:05:00,73.9,70.1,29.92,NNW,338,1.0,3.0,88,0.00,,,0.00,Wunderground v.1.15,2013-10-02 16:05:00,
2013-10-02 11:10:00,74.1,70.3,29.92,ENE,76,1.0,1.0,88,0.00,,,0.00,Wunderground v.1.15,2013-10-02 16:10:00,
2013-10-02 11:15:00,74.5,70.7,29.92,NNE,23,1.0,1.0,88,0.00,,,0.00,Wunderground v.1.15,2013-10-02 16:15:00,
2013-10-02 11:25:00,75.8,71.0,29.91,NNW,337,1.0,3.0,85,0.00,,,0.00,Wunderground v.1.15,2013-10-02 16:25:00,
2013-10-02 11:30:00,76.2,71.0,29.91,ENE,57,2.0,2.0,84,0.00,,,0.00,Wunderground v.1.15,2013-10-02 16:30:00,
2013-10-02 11:40:00,76.7,71.1,29.91,NW,321,1.0,2.0,83,0.00,,,0.00,Wunderground v.1.15,2013-10-02 16:40:00,
2013-10-02 11:46:00,77.0,71.1,29.91,North,1,1.0,2.0,82,0.00,,,0.00,Wunderground v.1.15,2013-10-02 16:46:00,
2013-10-02 11:55:00,77.1,70.8,29.91,ENE,77,1.0,1.0,81,0.00,,,0.00,Wunderground v.1.15,2013-10-02 16:55:00,
2013-10-02 12:01:00,77.4,71.1,29.90,North,349,1.0,1.0,81,0.00,,,0.00,Wunderground v.1.15,2013-10-02 17:01:00,
2013-10-02 12:10:00,78.2,71.9,29.90,East,86,1.0,1.0,81,0.00,,,0.00,Wunderground v.1.15,2013-10-02 17:10:00,
2013-10-02 12:21:00,79.8,71.9,29.89,NW,307,1.0,2.0,77,0.00,,,0.00,Wunderground v.1.15,2013-10-02 17:21:00,
2013-10-02 12:30:00,80.0,70.6,29.89,NNE,25,2.0,2.0,73,0.00,,,0.00,Wunderground v.1.15,2013-10-02 17:30:00,
2013-10-02 12:40:00,80.1,70.7,29.89,NW,320,1.0,1.0,73,0.00,,,0.00,Wunderground v.1.15,2013-10-02 17:40:00,
2013-10-02 12:45:00,80.1,70.3,29.89,WNW,295,1.0,3.0,72,0.00,,,0.00,Wunderground v.1.15,2013-10-02 17:45:00,
2013-10-02 12:56:00,79.8,70.0,29.88,NNW,329,1.0,3.0,72,0.00,,,0.00,Wunderground v.1.15,2013-10-02 17:56:00,
2013-10-02 13:05:00,80.2,70.4,29.88,SW,214,1.0,1.0,72,0.00,,,0.00,Wunderground v.1.15,2013-10-02 18:05:00,
2013-10-02 13:15:00,81.6,69.6,29.87,North,11,1.0,3.0,67,0.00,,,0.00,Wunderground v.1.15,2013-10-02 18:15:00,
2013-10-02 13:21:00,81.9,69.4,29.87,NE,35,2.0,2.0,66,0.00,,,0.00,Wunderground v.1.15,2013-10-02 18:21:00,
2013-10-02 13:30:00,81.9,69.4,29.86,NW,322,2.0,4.0,66,0.00,,,0.00,Wunderground v.1.15,2013-10-02 18:30:00,
2013-10-02 13:40:00,82.5,69.1,29.85,NW,323,2.0,2.0,64,0.00,,,0.00,Wunderground v.1.15,2013-10-02 18:40:00,
2013-10-02 13:45:00,82.4,69.9,29.85,NW,304,2.0,2.0,66,0.00,,,0.00,Wunderground v.1.15,2013-10-02 18:45:00,
2013-10-02 13:50:00,82.6,69.6,29.84,West,276,2.0,2.0,65,0.00,,,0.00,Wunderground v.1.15,2013-10-02 18:50:00,
2013-10-02 14:00:00,83.0,70.5,29.83,NNE,14,1.0,1.0,66,0.00,,,0.00,Wunderground v.1.15,2013-10-02 19:00:00,
2013-10-02 14:10:00,83.3,69.8,29.83,NW,322,2.0,4.0,64,0.00,,,0.00,Wunderground v.1.15,2013-10-02 19:10:00,
2013-10-02 14:15:00,82.8,69.8,29.82,WNW,293,2.0,4.0,65,0.00,,,0.00,Wunderground v.1.15,2013-10-02 19:15:00,
2013-10-02 14:20:00,83.0,70.0,29.82,NNW,330,2.0,2.0,65,0.00,,,0.00,Wunderground v.1.15,2013-10-02 19:20:00,
2013-10-02 14:30:00,83.4,69.5,29.82,NW,312,2.0,2.0,63,0.00,,,0.00,Wunderground v.1.15,2013-10-02 19:30:00,
2013-10-02 14:40:00,84.3,69.4,29.82,NW,316,3.0,3.0,61,0.00,,,0.00,Wunderground v.1.15,2013-10-02 19:40:00,
2013-10-02 14:51:00,85.2,69.7,29.81,NW,306,2.0,2.0,60,0.00,,,0.00,Wunderground v.1.15,2013-10-02 19:51:00,
2013-10-02 15:06:00,85.0,69.6,29.81,NW,316,3.0,3.0,60,0.00,,,0.00,Wunderground v.1.15,2013-10-02 20:06:00,
2013-10-02 15:15:00,84.9,69.5,29.81,East,87,2.0,2.0,60,0.00,,,0.00,Wunderground v.1.15,2013-10-02 20:15:00,
2013-10-02 15:20:00,84.8,68.9,29.80,NNW,327,3.0,5.0,59,0.00,,,0.00,Wunderground v.1.15,2013-10-02 20:20:00,
2013-10-02 15:25:00,84.5,69.1,29.80,NW,304,3.0,3.0,60,0.00,,,0.00,Wunderground v.1.15,2013-10-02 20:25:00,
2013-10-02 15:35:00,84.6,69.7,29.80,WNW,301,2.0,2.0,61,0.00,,,0.00,Wunderground v.1.15,2013-10-02 20:35:00,
2013-10-02 15:41:00,84.6,69.2,29.80,NNW,327,3.0,4.0,60,0.00,,,0.00,Wunderground v.1.15,2013-10-02 20:41:00,
2013-10-02 15:50:00,83.7,69.8,29.79,WNW,294,3.0,4.0,63,0.00,,,0.00,Wunderground v.1.15,2013-10-02 20:50:00,
2013-10-02 15:55:00,83.7,69.3,29.79,NNW,330,3.0,4.0,62,0.00,,,0.00,Wunderground v.1.15,2013-10-02 20:55:00,
2013-10-02 16:00:00,83.0,69.1,29.79,NNW,327,3.0,4.0,63,0.00,,,0.00,Wunderground v.1.15,2013-10-02 21:00:00,
2013-10-02 16:10:00,83.0,69.6,29.79,NW,325,2.0,2.0,64,0.00,,,0.00,Wunderground v.1.15,2013-10-02 21:10:00,
2013-10-02 16:15:00,83.7,69.8,29.79,NW,321,2.0,2.0,63,0.00,,,0.00,Wunderground v.1.15,2013-10-02 21:15:00,
2013-10-02 16:25:00,83.6,69.7,29.79,NNW,333,3.0,3.0,63,0.00,,,0.00,Wunderground v.1.15,2013-10-02 21:25:00,
2013-10-02 16:36:00,84.4,69.5,29.79,NW,314,4.0,6.0,61,0.00,,,0.00,Wunderground v.1.15,2013-10-02 21:36:00,
2013-10-02 16:45:00,83.7,69.3,29.78,NNE,23,3.0,4.0,62,0.00,,,0.00,Wunderground v.1.15,2013-10-02 21:45:00,
2013-10-02 16:51:00,83.1,69.2,29.79,NW,315,3.0,3.0,63,0.00,,,0.00,Wunderground v.1.15,2013-10-02 21:51:00,
2013-10-02 17:00:00,82.2,69.7,29.78,East,83,3.0,4.0,66,0.00,,,0.00,Wunderground v.1.15,2013-10-02 22:00:00,
2013-10-02 17:10:00,81.0,69.4,29.79,NNW,347,4.0,5.0,68,0.00,,,0.00,Wunderground v.1.15,2013-10-02 22:10:00,
2013-10-02 17:20:00,79.9,69.7,29.79,NNW,343,4.0,4.0,71,0.00,,,0.00,Wunderground v.1.15,2013-10-02 22:20:00,
2013-10-02 17:25:00,79.9,70.1,29.80,WNW,292,4.0,4.0,72,0.00,,,0.00,Wunderground v.1.15,2013-10-02 22:25:00,
2013-10-02 17:30:00,79.5,70.1,29.80,WNW,293,4.0,7.0,73,0.00,,,0.00,Wunderground v.1.15,2013-10-02 22:30:00,
2013-10-02 17:40:00,78.3,69.7,29.80,NW,319,4.0,4.0,75,0.00,,,0.00,Wunderground v.1.15,2013-10-02 22:40:00,
2013-10-02 17:45:00,78.0,69.4,29.80,NNW,338,4.0,4.0,75,0.00,,,0.00,Wunderground v.1.15,2013-10-02 22:45:00,
2013-10-02 17:55:00,77.5,68.6,29.80,NW,325,3.0,4.0,74,0.00,,,0.00,Wunderground v.1.15,2013-10-02 22:55:00,
2013-10-02 18:00:00,77.4,67.7,29.80,WNW,300,3.0,5.0,72,0.00,,,0.00,Wunderground v.1.15,2013-10-02 23:00:00,
2013-10-02 18:10:00,77.0,67.3,29.81,NNE,16,3.0,5.0,72,0.00,,,0.00,Wunderground v.1.15,2013-10-02 23:10:00,
2013-10-02 18:20:00,76.6,66.9,29.80,WNW,285,2.0,2.0,72,0.00,,,0.00,Wunderground v.1.15,2013-10-02 23:20:00,
2013-10-02 18:30:00,75.8,66.5,29.80,NW,319,2.0,2.0,73,0.00,,,0.00,Wunderground v.1.15,2013-10-02 23:30:00,
2013-10-02 18:40:00,75.1,66.6,29.80,NW,319,2.0,2.0,75,0.00,,,0.00,Wunderground v.1.15,2013-10-02 23:40:00,
2013-10-02 18:45:00,74.8,66.7,29.80,NNW,332,1.0,2.0,76,0.00,,,0.00,Wunderground v.1.15,2013-10-02 23:45:00,
2013-10-02 18:55:00,74.1,66.8,29.80,NW,325,1.0,1.0,78,0.00,,,0.00,Wunderground v.1.15,2013-10-02 23:55:00,
2013-10-02 19:00:00,73.7,66.8,29.80,NW,315,1.0,1.0,79,0.00,,,0.00,Wunderground v.1.15,2013-10-03 00:00:00,
2013-10-02 19:11:00,73.1,66.9,29.79,NW,321,1.0,2.0,81,0.00,,,0.00,Wunderground v.1.15,2013-10-03 00:11:00,
2013-10-02 19:20:00,72.7,67.2,29.79,WNW,290,1.0,1.0,83,0.00,,,0.00,Wunderground v.1.15,2013-10-03 00:20:00,
2013-10-02 19:30:00,72.2,67.4,29.79,WNW,301,1.0,1.0,85,0.00,,,0.00,Wunderground v.1.15,2013-10-03 00:30:00,
2013-10-02 19:35:00,72.0,67.6,29.79,NW,314,1.0,2.0,86,0.00,,,0.00,Wunderground v.1.15,2013-10-03 00:35:00,
2013-10-02 19:40:00,71.8,67.4,29.80,NW,305,2.0,2.0,86,0.00,,,0.00,Wunderground v.1.15,2013-10-03 00:40:00,
2013-10-02 19:50:00,71.5,67.4,29.80,NW,325,1.0,1.0,87,0.00,,,0.00,Wunderground v.1.15,2013-10-03 00:50:00,
2013-10-02 19:55:00,71.5,67.8,29.80,NW,312,1.0,1.0,88,0.00,,,0.00,Wunderground v.1.15,2013-10-03 00:55:00,
2013-10-02 20:00:00,71.4,67.7,29.80,NW,315,1.0,1.0,88,0.00,,,0.00,Wunderground v.1.15,2013-10-03 01:00:00,
2013-10-02 20:10:00,71.1,67.7,29.80,NW,307,1.0,1.0,89,0.00,,,0.00,Wunderground v.1.15,2013-10-03 01:10:00,
2013-10-02 20:15:00,71.0,67.9,29.80,NW,307,1.0,1.0,90,0.00,,,0.00,Wunderground v.1.15,2013-10-03 01:15:00,
2013-10-02 20:25:00,70.8,68.0,29.80,NW,316,0.0,2.0,91,0.00,,,0.00,Wunderground v.1.15,2013-10-03 01:25:00,
2013-10-02 20:30:00,70.8,68.0,29.80,NW,313,1.0,1.0,91,0.00,,,0.00,Wunderground v.1.15,2013-10-03 01:30:00,
2013-10-02 20:40:00,70.9,68.5,29.80,WNW,295,2.0,2.0,92,0.00,,,0.00,Wunderground v.1.15,2013-10-03 01:40:00,
2013-10-02 20:45:00,70.9,68.5,29.80,NW,321,2.0,2.0,92,0.00,,,0.00,Wunderground v.1.15,2013-10-03 01:45:00,
2013-10-02 20:50:00,70.9,68.5,29.80,NW,316,2.0,2.0,92,0.00,,,0.00,Wunderground v.1.15,2013-10-03 01:50:00,
2013-10-02 21:00:00,70.9,68.5,29.80,WNW,301,2.0,2.0,92,0.00,,,0.00,Wunderground v.1.15,2013-10-03 02:00:00,
2013-10-02 21:11:00,71.0,68.9,29.80,NW,319,2.0,2.0,93,0.00,,,0.00,Wunderground v.1.15,2013-10-03 02:11:00,
2013-10-02 21:20:00,71.1,69.0,29.80,NW,326,2.0,2.0,93,0.00,,,0.00,Wunderground v.1.15,2013-10-03 02:20:00,
2013-10-02 21:25:00,71.1,69.0,29.80,WNW,288,2.0,2.0,93,0.00,,,0.00,Wunderground v.1.15,2013-10-03 02:25:00,
2013-10-02 21:35:00,70.9,68.8,29.80,NW,307,2.0,2.0,93,0.00,,,0.00,Wunderground v.1.15,2013-10-03 02:35:00,
2013-10-02 21:45:00,70.8,68.7,29.81,NW,314,2.0,4.0,93,0.00,,,0.00,Wunderground v.1.15,2013-10-03 02:45:00,
2013-10-02 22:00:00,70.7,68.9,29.80,NW,317,2.0,3.0,94,0.00,,,0.00,Wunderground v.1.15,2013-10-03 03:00:00,
2013-10-02 22:10:00,70.6,68.8,29.80,NNW,330,2.0,2.0,94,0.00,,,0.00,Wunderground v.1.15,2013-10-03 03:10:00,
2013-10-02 22:20:00,70.5,68.7,29.80,NW,317,2.0,2.0,94,0.00,,,0.00,Wunderground v.1.15,2013-10-03 03:20:00,
2013-10-02 22:25:00,70.4,68.6,29.80,NNW,330,2.0,3.0,94,0.00,,,0.00,Wunderground v.1.15,2013-10-03 03:25:00,
2013-10-02 22:30:00,70.4,68.6,29.80,NNW,328,2.0,5.0,94,0.00,,,0.00,Wunderground v.1.15,2013-10-03 03:30:00,
2013-10-02 22:40:00,70.3,68.5,29.80,NNW,330,2.0,2.0,94,0.00,,,0.00,Wunderground v.1.15,2013-10-03 03:40:00,
2013-10-02 22:50:00,70.2,68.4,29.80,NW,323,2.0,3.0,94,0.00,,,0.00,Wunderground v.1.15,2013-10-03 03:50:00,
2013-10-02 23:00:00,70.1,68.3,29.80,NW,323,2.0,3.0,94,0.00,,,0.00,Wunderground v.1.15,2013-10-03 04:00:00,
2013-10-02 23:05:00,70.0,68.2,29.80,NW,304,2.0,3.0,94,0.00,,,0.00,Wunderground v.1.15,2013-10-03 04:05:00,
2013-10-02 23:10:00,70.0,68.2,29.80,NW,317,2.0,2.0,94,0.00,,,0.00,Wunderground v.1.15,2013-10-03 04:10:00,
2013-10-02 23:15:00,70.0,68.2,29.80,NW,317,2.0,2.0,94,0.00,,,0.00,Wunderground v.1.15,2013-10-03 04:15:00,
2013-10-02 23:25:00,69.9,68.1,29.80,NW,326,2.0,4.0,94,0.00,,,0.00,Wunderground v.1.15,2013-10-03 04:25:00,
2013-10-02 23:30:00,69.8,68.0,29.80,NNW,331,2.0,2.0,94,0.00,,,0.00,Wunderground v.1.15,2013-10-03 04:30:00,
2013-10-02 23:45:00,69.6,67.8,29.80,NW,317,3.0,3.0,94,0.00,,,0.00,Wunderground v.1.15,2013-10-03 04:45:00,
2013-10-02 23:55:00,69.5,68.0,29.80,NW,316,2.0,2.0,95,0.00,,,0.00,Wunderground v.1.15,2013-10-03 04:55:00,